Miscellaneous Local Product
Issued by NWS Hastings, NE

Home | Current Version | Previous Version | Text Only | Print | Product List | Glossary On
Versions: 1 2 3 4 5 6 7 8 9 10 11 12 13 14 15 16 17 18 19 20 21 22 23 24 25 26 27 28 29 30 31 32 33 34 35 36 37 38 39 40 41 42 43 44 45 46 47 48 49 50
000
AXUS43 KGID 290502
MISGRI

GID CWA HOURLY WEATHER ROUNDUP
NATIONAL WEATHER SERVICE HASTINGS NE
1100 PM CST FRI NOV 28 2014

NOTE: "FAIR" INDICATES FEW OR NO CLOUDS BELOW 12,000 FEET WITH NO
SIGNIFICANT WEATHER AND/OR OBSTRUCTIONS TO VISIBILITY.

...SOUTH CENTRAL NEBRASKA...

CITY           SKY/WX    TMP DP  RH WIND       PRES   REMARKS
GRAND ISLAND   MOCLDY    49  21  33 SW12      29.62F
HASTINGS       MOCLDY    49  19  30 SW9       29.63F
KEARNEY        MOCLDY    48  18  29 SW12      29.66S
ORD              N/A     38  22  52 MISG      29.59F
YORK           PTCLDY    43  30  61 SW10      29.62S
AURORA         MOCLDY    44  24  46 SW12      29.62S
LEXINGTON      MOCLDY    36  18  48 W6        29.66S WCI  31
HOLDREGE       MOCLDY    55  15  20 W5        29.67S
HEBRON         MOCLDY    50  32  48 SW14      29.65F

...NEBRASKA PANHANDLE...

CITY           SKY/WX    TMP DP  RH WIND       PRES   REMARKS
CHADRON        PTCLDY   N/A N/A N/A SW14      29.59S
ALLIANCE       MOCLDY    38  19  46 SW10      29.66F WCI  31
SCOTTSBLUFF    CLOUDY    54  18  24 SW14      29.67F
SIDNEY         CLOUDY    47  19  33 W12       29.72S

...WESTERN AND NORTH CENTRAL NEBRASKA...

CITY           SKY/WX    TMP DP  RH WIND       PRES   REMARKS
VALENTINE      PTCLDY    45  23  42 W9        29.54F
AINSWORTH      MOCLDY    48  21  35 SW10      29.56S
ONEILL         MOCLDY    43  29  58 S9        29.55F
BROKEN BOW     PTCLDY    52  23  32 W9        29.62F
IMPERIAL       CLOUDY    38  20  48 SW5       29.69F WCI  34
NORTH PLATTE   MOCLDY    30  21  69 W5        29.67S WCI  25
MCCOOK         CLOUDY    40  14  34 W5        29.68F

...EASTERN NEBRASKA...

CITY           SKY/WX    TMP DP  RH WIND       PRES   REMARKS
NORFOLK        MOCLDY    33  28  81 CALM      29.57F
SO SIOUX CITY  MOCLDY    29  26  89 SW5       29.59S WCI  24
TEKAMAH        MOCLDY    32  25  75 S7        29.59S WCI  26
COLUMBUS       MOCLDY    32  25  74 CALM      29.61S
ALBION         MOCLDY    31  22  70 CALM      29.59F
OMAHA EPPLEY   MOCLDY    37  31  78 SE8       29.62S WCI  31
OFFUTT AFB     MOCLDY    33  28  84 E2        29.61F
MILLARD        MOCLDY    34  30  85 CALM      29.61F
LINCOLN        PTCLDY    46  32  58 SE5       29.63F
NEBRASKA CITY  PTCLDY    47  31  54 SW12      29.63S
BEATRICE       MOCLDY    48  35  59 SW13      29.65S
FALLS CITY     MOCLDY    54  37  52 SW21      29.64F

...NORTHERN KANSAS...

CITY           SKY/WX    TMP DP  RH WIND       PRES   REMARKS
GOODLAND       CLOUDY    49  15  25 SW8       29.72F
HILL CITY      MOCLDY    38  19  46 NW3       29.69F
NORTON         CLEAR     43  12  28 SW7       29.67F
PHILLIPSBURG   CLEAR     48  21  34 S8        29.69R
SMITH CENTER   CLEAR     46  27  46 S8        29.68S
BELOIT         CLEAR     50  30  46 CALM      29.67S
HAYS           MOCLDY    46  25  42 SW5       29.70F
RUSSELL        FAIR      42  30  62 S9        29.68F
CONCORDIA      CLOUDY    50  35  56 SW14      29.67S
SALINA         CLOUDY    49  36  61 S14       29.71F
TOPEKA         CLOUDY    56  38  50 SW9       29.73F



USA.gov is the U.S. government's official web portal to all federal, state and local government web resources and services.